Cheraw, CO

7:21 AM MST on February 07, 2016 (GMT -0700)
La Junta Municipal

Weather History for KLHX - June, 2013

Change the Weather History Date:

Tuesday, June 25, 2013

  Actual Average Record
Temperature  
Mean Temperature 85 °F 76 °F  
Max Temperature 100 °F 92 °F 108 °F (1978)
Min Temperature 70 °F 60 °F 49 °F (1958)
Degree Days  
Heating Degree Days 0 0  
Month to date heating degree days 11 15  
Since 1 June heating degree days 11 15  
Since 1 July heating degree days 5085 5270  
Cooling Degree Days 20 11  
Month to date cooling degree days 302 188  
Year to date cooling degree days 440 261  
Since 1 June cooling degree days 302 188  
Growing Degree Days 35 (Base 50)    
Moisture  
Dew Point 20 °F    
Average Humidity 15    
Maximum Humidity 25    
Minimum Humidity 5    
Precipitation  
Precipitation 0.00 in 0.05 in 0.98 in (1983)
Month to date precipitation 2.00 1.14  
Year to date precipitation 2.67 5.43  
Sea Level Pressure  
Sea Level Pressure 29.64 in    
Wind  
Wind Speed 9 mph (WSW)    
Max Wind Speed 20 mph    
Max Gust Speed 24 mph    
Visibility 10 miles    
Events      
T = Trace of Precipitation, MM = Missing Value Source: NWS Daily Summary

Daily Weather History Graph

Daily Weather History Graph

Search for Another Location

Airport or City:

Trip Planner

Search our weather history database for the weather conditions in past years. The results will help you decide how hot, cold, wet, or windy it might be!

Date:

Astronomy

Jun. 25, 2013 Rise Set
Actual Time 5:32 AM MDT 8:20 PM MDT
Civil Twilight 5:01 AM MDT 8:52 PM MDT
Nautical Twilight 4:21 AM MDT 9:31 PM MDT
Astronomical Twilight 3:36 AM MDT 10:16 PM MDT
Moon 10:11 PM MDT (6/25) 8:12 AM MDT (6/25)
Length of Visible Light 15h 51m
Length of Day
14h 48m
Waning Gibbous, 92% of the Moon is Illuminated
Jun 25
Waning Gibbous
Jun 29
Last Quarter
Jul 8
New
Jul 15
First Quarter
Jul 22
Full

Hourly Weather History & Observations

Time (MDT) Temp. Dew Point Humidity Pressure Visibility Wind Dir Wind Speed Gust Speed Precip Events Conditions
12:53 AM 79.0 °F 12.9 °F 8% 29.57 in 10.0 mi SW 12.7 mph - N/A   Clear
1:53 AM 78.1 °F 10.9 °F 8% 29.57 in 10.0 mi SW 12.7 mph - N/A   Clear
2:53 AM 73.9 °F 16.0 °F 11% 29.57 in 10.0 mi WSW 9.2 mph - N/A   Clear
3:53 AM 73.0 °F 17.1 °F 12% 29.57 in 10.0 mi West 15.0 mph - N/A   Clear
4:53 AM 72.0 °F 16.0 °F 12% 29.60 in 10.0 mi WSW 10.4 mph - N/A   Clear
5:53 AM 72.0 °F 15.1 °F 11% 29.62 in 10.0 mi WSW 13.8 mph - N/A   Clear
6:53 AM 73.9 °F 17.1 °F 12% 29.65 in 10.0 mi WSW 13.8 mph - N/A   Clear
7:53 AM 75.9 °F 24.1 °F 15% 29.68 in 10.0 mi West 10.4 mph - N/A   Clear
8:53 AM 84.0 °F 26.1 °F 12% 29.68 in 10.0 mi West 9.2 mph - N/A   Clear
9:53 AM 89.1 °F 19.0 °F 8% 29.67 in 10.0 mi WNW 16.1 mph - N/A   Clear
10:53 AM 91.0 °F 19.0 °F 7% 29.66 in 10.0 mi West 11.5 mph 20.7 mph N/A   Clear
11:53 AM 95.0 °F 16.0 °F 6% 29.66 in 10.0 mi West 8.1 mph 17.3 mph N/A   Clear
12:53 PM 97.0 °F 16.0 °F 5% 29.65 in 10.0 mi West 8.1 mph - N/A   Clear
1:53 PM 96.1 °F 16.0 °F 5% 29.65 in 10.0 mi SW 8.1 mph - N/A   Clear
2:53 PM 97.0 °F 17.1 °F 5% 29.65 in 10.0 mi SW 6.9 mph 24.2 mph N/A   Clear
3:53 PM 97.0 °F 17.1 °F 5% 29.64 in 10.0 mi Variable 4.6 mph - N/A   Clear
4:53 PM 98.1 °F 17.1 °F 5% 29.63 in 10.0 mi NNE 5.8 mph - N/A   Clear
5:53 PM 98.1 °F 17.1 °F 5% 29.62 in 10.0 mi Calm Calm - N/A   Clear
6:53 PM 96.1 °F 19.9 °F 6% 29.62 in 10.0 mi ESE 9.2 mph - N/A   Clear
7:53 PM 91.0 °F 28.0 °F 10% 29.64 in 10.0 mi ESE 9.2 mph - N/A   Clear
8:53 PM 84.0 °F 27.0 °F 13% 29.65 in 10.0 mi East 5.8 mph - N/A   Clear
9:53 PM 78.1 °F 28.9 °F 17% 29.68 in 10.0 mi East 6.9 mph - N/A   Clear
10:53 PM 73.9 °F 34.0 °F 23% 29.71 in 10.0 mi NNE 12.7 mph - N/A   Clear
11:53 PM 72.0 °F 34.0 °F 25% 29.72 in 10.0 mi NE 6.9 mph - N/A   Clear